Tracking 20241 objects as of 25-Jan-2020
HD Live streaming from Space Station
objects crossing your sky now

FENGYUN 1C DEB

Track FENGYUN 1C DEB now!
10-day predictions


NORAD ID: 29843
Int'l Code: 1999-025EM
Perigee: 671.0 km
Apogee: 964.4 km
Inclination: 98.9 °
Period: 101.1 minutes
Semi major axis: 7188 km
RCS: 0.054 m2 (small)
Launch date: May 10, 1999
Source: People's Republic of China (PRC)
Launch site: Taiyaun Space Center, China (TSC)

Note: This is SATELLITE DEBRIS
aabbcc
Your satellite tracking list
Your tracking list is empty




NASA's NSSDC Master Catalog

Two Line Element Set (TLE):
1 29843U 99025EM  20024.59647279 +.00000099 +00000-0 +51747-4 0  9994
2 29843 098.8531 143.8805 0204047 016.2651 355.3486 14.24380835676583
Source of the keplerian elements: AFSPC